| time (UTC) | temp F | wind direction | speed knots | gust knots | rain 1hr in | rain 24hr in | rain mn in | humidity % | barometer mb |
| 20260506080505 | 62 | 155 | 0.0 | 0.0 | 0.00 | 0.00 | 0.00 | 85 | 1011.6 |
| 20260506073506 | 61 | 142 | 0.0 | 0.0 | 0.00 | 0.00 | 0.00 | 84 | 1011.6 |
| 20260506073005 | 61 | 156 | 0.0 | 0.0 | 0.00 | 0.00 | 0.00 | 83 | 1011.6 |
| 20260506072505 | 61 | 156 | 0.0 | 0.0 | 0.00 | 0.00 | 0.00 | 82 | 1011.6 |
| 20260506071007 | 63 | 154 | 0.0 | 0.0 | 0.00 | 0.00 | 0.00 | 83 | 1012.5 |
| 20260506062505 | 62 | 121 | 0.0 | 0.0 | 0.00 | 0.00 | 0.00 | 79 | 1012.5 |
| 20260506062005 | 62 | 121 | 0.0 | 0.0 | 0.00 | 0.00 | 0.00 | 79 | 1012.5 |
| 20260506061505 | 62 | 121 | 0.0 | 0.0 | 0.00 | 0.00 | 0.00 | 77 | 1012.5 |
| 20260506061006 | 62 | 121 | 0.0 | 0.0 | 0.00 | 0.00 | 0.00 | 77 | 1012.5 |
| 20260506060505 | 63 | 121 | 0.0 | 0.0 | 0.00 | 0.00 | 0.00 | 76 | 1012.5 |
| 20260506050505 | 66 | 188 | 0.0 | 0.9 | 0.00 | 0.00 | 0.00 | 66 | 1012.1 |
| 20260506045005 | 66 | 179 | 0.0 | 2.6 | 0.00 | 0.00 | 0.00 | 64 | 1012.6 |
| 20260506044005 | 66 | 132 | 0.9 | 2.6 | 0.00 | 0.00 | 0.00 | 63 | 1012.6 |
| 20260506043506 | 67 | 118 | 0.9 | 1.7 | 0.00 | 0.00 | 0.00 | 62 | 1012.6 |
| 20260506043005 | 67 | 159 | 0.9 | 1.7 | 0.00 | 0.00 | 0.00 | 62 | 1012.6 |
| 20260506042505 | 67 | 134 | 0.0 | 0.0 | 0.00 | 0.00 | 0.00 | 61 | 1012.6 |
| 20260506042006 | 67 | 153 | 0.0 | 0.9 | 0.00 | 0.00 | 0.00 | 60 | 1012.6 |
| 20260506041506 | 67 | 224 | 0.0 | 0.9 | 0.00 | 0.00 | 0.00 | 60 | 1012.6 |
| 20260506041005 | 67 | 191 | 0.0 | 1.7 | 0.00 | 0.00 | 0.00 | 60 | 1012.6 |
| 20260506040506 | 68 | 138 | 0.0 | 1.7 | 0.00 | 0.00 | 0.00 | 59 | 1012.6 |
| 20260506035506 | 68 | 154 | 0.9 | 2.6 | 0.00 | 0.00 | 0.00 | 58 | 1012.6 |
| 20260506035005 | 68 | 169 | 0.9 | 5.2 | 0.00 | 0.00 | 0.00 | 58 | 1012.6 |
| 20260506034506 | 68 | 125 | 1.7 | 5.2 | 0.00 | 0.00 | 0.00 | 58 | 1012.6 |
| 20260506034005 | 69 | 163 | 1.7 | 2.6 | 0.00 | 0.00 | 0.00 | 57 | 1012.6 |
| 20260506033505 | 68 | 137 | 1.7 | 4.3 | 0.00 | 0.00 | 0.00 | 57 | 1012.6 |
| 20260506033005 | 68 | 199 | 0.9 | 4.3 | 0.00 | 0.00 | 0.00 | 57 | 1012.6 |
| 20260506032005 | 68 | 128 | 0.9 | 2.6 | 0.00 | 0.00 | 0.00 | 57 | 1012.6 |
| 20260506031506 | 68 | 128 | 0.0 | 1.7 | 0.00 | 0.00 | 0.00 | 56 | 1012.6 |
| 20260506030505 | 69 | 142 | 0.0 | 2.6 | 0.00 | 0.00 | 0.00 | 56 | 1012.6 |
| 20260506030006 | 69 | 100 | 0.9 | 2.6 | 0.00 | 0.00 | 0.00 | 55 | 1012.6 |
| 20260506025505 | 69 | 132 | 0.9 | 1.7 | 0.00 | 0.00 | 0.00 | 55 | 1012.6 |
| 20260506025005 | 69 | 123 | 0.9 | 4.3 | 0.00 | 0.00 | 0.00 | 54 | 1012.6 |
| 20260506024505 | 69 | 139 | 1.7 | 2.6 | 0.00 | 0.00 | 0.00 | 54 | 1012.6 |
| 20260506023006 | 69 | 123 | 0.9 | 4.3 | 0.00 | 0.00 | 0.00 | 53 | 1012.1 |
| 20260506022505 | 69 | 182 | 0.9 | 4.3 | 0.00 | 0.00 | 0.00 | 53 | 1012.1 |
| 20260506021505 | 69 | 161 | 0.9 | 2.6 | 0.00 | 0.00 | 0.00 | 54 | 1012.1 |
| 20260506020505 | 69 | 169 | 1.7 | 2.6 | 0.00 | 0.00 | 0.00 | 53 | 1012.1 |
| 20260506020005 | 70 | 151 | 1.7 | 4.3 | 0.00 | 0.00 | 0.00 | 53 | 1012.1 |
| 20260506015505 | 70 | 345 | 0.9 | 2.6 | 0.00 | 0.00 | 0.00 | 53 | 1012.1 |
| 20260506015005 | 70 | 144 | 1.7 | 2.6 | 0.00 | 0.00 | 0.00 | 52 | 1012.1 |
| 20260506014505 | 70 | 107 | 1.7 | 5.2 | 0.00 | 0.00 | 0.00 | 52 | 1012.1 |
| 20260506014005 | 70 | 126 | 1.7 | 2.6 | 0.00 | 0.00 | 0.00 | 52 | 1012.1 |
| 20260506013505 | 70 | 127 | 0.0 | 1.7 | 0.00 | 0.00 | 0.00 | 53 | 1012.1 |
| 20260506013005 | 71 | 133 | 0.9 | 2.6 | 0.00 | 0.00 | 0.00 | 52 | 1012.1 |
| 20260506011505 | 71 | 185 | 1.7 | 4.3 | 0.00 | 0.00 | 0.00 | 52 | 1012.1 |
| 20260506011005 | 71 | 150 | 0.9 | 2.6 | 0.00 | 0.00 | 0.00 | 52 | 1012.1 |
| 20260506010505 | 71 | 141 | 0.9 | 2.6 | 0.00 | 0.00 | 0.00 | 52 | 1012.1 |
| 20260506010006 | 72 | 152 | 0.9 | 1.7 | 0.00 | 0.00 | 0.00 | 52 | 1012.1 |
| 20260506005505 | 72 | 138 | 0.9 | 2.6 | 0.00 | 0.00 | 0.00 | 51 | 1012.1 |
| 20260506005006 | 72 | 124 | 0.9 | 2.6 | 0.00 | 0.00 | 0.00 | 51 | 1012.1 |
| 20260506004505 | 72 | 138 | 0.9 | 2.6 | 0.00 | 0.00 | 0.00 | 50 | 1012.1 |
| 20260506004005 | 72 | 144 | 1.7 | 6.1 | 0.00 | 0.00 | 0.00 | 50 | 1012.1 |
| 20260506003505 | 72 | 137 | 0.9 | 2.6 | 0.00 | 0.00 | 0.00 | 49 | 1012.1 |
| 20260506003005 | 73 | 153 | 0.9 | 2.6 | 0.00 | 0.00 | 0.00 | 49 | 1012.1 |
| 20260506001505 | 73 | 167 | 0.9 | 1.7 | 0.00 | 0.00 | 0.00 | 48 | 1012.1 |
| 20260506001005 | 73 | 92 | 0.0 | 0.9 | 0.00 | 0.00 | 0.00 | 47 | 1012.1 |
| 20260506000505 | 73 | 129 | 0.0 | 0.9 | 0.00 | 0.00 | 0.00 | 46 | 1012.1 |
| 20260506000005 | 74 | 94 | 0.0 | 1.7 | 0.00 | 0.00 | 0.00 | 46 | 1012.1 |
| 20260505235504 | 74 | 81 | 0.0 | 1.7 | 0.00 | 0.00 | 0.00 | 46 | 1012.1 |
| 20260505235005 | 74 | 150 | 0.0 | 1.7 | 0.00 | 0.00 | 0.00 | 46 | 1012.1 |
| 20260505234505 | 74 | 157 | 0.0 | 2.6 | 0.00 | 0.00 | 0.00 | 45 | 1012.1 |
| 20260505234005 | 74 | 149 | 0.9 | 4.3 | 0.00 | 0.00 | 0.00 | 45 | 1012.1 |
| 20260505232505 | 75 | 115 | 1.7 | 4.3 | 0.00 | 0.00 | 0.00 | 43 | 1012.1 |
| 20260505232006 | 75 | 182 | 1.7 | 6.1 | 0.00 | 0.00 | 0.00 | 42 | 1012.1 |
| 20260505231504 | 75 | 241 | 0.9 | 2.6 | 0.00 | 0.00 | 0.00 | 42 | 1012.1 |
| 20260505230005 | 76 | 340 | 0.9 | 4.3 | 0.00 | 0.00 | 0.00 | 41 | 1012.1 |
| 20260505225506 | 76 | 296 | 1.7 | 4.3 | 0.00 | 0.00 | 0.00 | 41 | 1012.1 |
| 20260505225005 | 76 | 185 | 1.7 | 4.3 | 0.00 | 0.00 | 0.00 | 40 | 1012.1 |
| 20260505224505 | 76 | 138 | 2.6 | 6.1 | 0.00 | 0.00 | 0.00 | 39 | 1012.1 |
| 20260505224006 | 77 | 30 | 1.7 | 4.3 | 0.00 | 0.00 | 0.00 | 38 | 1012.0 |
| 20260505223505 | 77 | 106 | 1.7 | 6.1 | 0.00 | 0.00 | 0.00 | 37 | 1012.0 |
| 20260505223005 | 77 | 141 | 2.6 | 6.1 | 0.00 | 0.00 | 0.00 | 38 | 1012.0 |
| 20260505222505 | 78 | 50 | 2.6 | 6.1 | 0.00 | 0.00 | 0.00 | 38 | 1012.0 |
| 20260505222006 | 78 | 75 | 1.7 | 6.1 | 0.00 | 0.00 | 0.00 | 38 | 1012.0 |
| 20260505221505 | 78 | 168 | 1.7 | 6.1 | 0.00 | 0.00 | 0.00 | 38 | 1012.0 |
| 20260505220505 | 78 | 116 | 1.7 | 7.8 | 0.00 | 0.00 | 0.00 | 37 | 1012.0 |
| 20260505215505 | 77 | 50 | 2.6 | 8.7 | 0.00 | 0.00 | 0.00 | 35 | 1012.0 |
| 20260505215005 | 78 | 142 | 1.7 | 8.7 | 0.00 | 0.00 | 0.00 | 38 | 1012.0 |
| 20260505214504 | 78 | 174 | 1.7 | 6.1 | 0.00 | 0.00 | 0.00 | 38 | 1012.0 |
| 20260505214005 | 78 | 117 | 1.7 | 7.0 | 0.00 | 0.00 | 0.00 | 36 | 1012.0 |
| 20260505213505 | 79 | 136 | 2.6 | 7.0 | 0.00 | 0.00 | 0.00 | 37 | 1012.0 |
| 20260505213005 | 79 | 162 | 0.9 | 2.6 | 0.00 | 0.00 | 0.00 | 38 | 1012.5 |
| 20260505212504 | 79 | 131 | 1.7 | 7.0 | 0.00 | 0.00 | 0.00 | 38 | 1012.5 |
| 20260505212005 | 79 | 128 | 1.7 | 5.2 | 0.00 | 0.00 | 0.00 | 38 | 1012.5 |
| 20260505211505 | 79 | 136 | 0.9 | 5.2 | 0.00 | 0.00 | 0.00 | 40 | 1012.5 |
| 20260505211006 | 79 | 132 | 1.7 | 7.0 | 0.00 | 0.00 | 0.00 | 38 | 1012.5 |
| 20260505210006 | 79 | 112 | 0.9 | 4.3 | 0.00 | 0.00 | 0.00 | 37 | 1012.5 |
| 20260505205505 | 79 | 255 | 1.7 | 2.6 | 0.00 | 0.00 | 0.00 | 38 | 1012.5 |
| 20260505205005 | 79 | 172 | 1.7 | 7.0 | 0.00 | 0.00 | 0.00 | 37 | 1012.5 |
| 20260505204505 | 79 | 163 | 2.6 | 7.0 | 0.00 | 0.00 | 0.00 | 37 | 1012.5 |
| 20260505203505 | 79 | 77 | 0.9 | 2.6 | 0.00 | 0.00 | 0.00 | 37 | 1013.0 |
| 20260505203005 | 80 | 290 | 1.7 | 6.1 | 0.00 | 0.00 | 0.00 | 36 | 1013.0 |
| 20260505202504 | 80 | 111 | 1.7 | 7.0 | 0.00 | 0.00 | 0.00 | 38 | 1013.0 |
| 20260505202005 | 80 | 296 | 1.7 | 6.1 | 0.00 | 0.00 | 0.00 | 37 | 1013.0 |
| 20260505201505 | 80 | 79 | 1.7 | 7.8 | 0.00 | 0.00 | 0.00 | 36 | 1013.0 |
| 20260505201004 | 80 | 81 | 1.7 | 4.3 | 0.00 | 0.00 | 0.00 | 37 | 1013.2 |
| 20260505200505 | 80 | 272 | 1.7 | 5.2 | 0.00 | 0.00 | 0.00 | 38 | 1013.2 |
| 20260505200005 | 80 | 157 | 0.9 | 2.6 | 0.00 | 0.00 | 0.00 | 40 | 1013.2 |
| 20260505195504 | 80 | 350 | 1.7 | 6.1 | 0.00 | 0.00 | 0.00 | 38 | 1013.2 |
| 20260505195006 | 80 | 292 | 1.7 | 7.0 | 0.00 | 0.00 | 0.00 | 37 | 1013.2 |
| 20260505194005 | 81 | 157 | 1.7 | 7.0 | 0.00 | 0.00 | 0.00 | 39 | 1014.9 |
| 20260505193506 | 80 | 246 | 0.9 | 2.6 | 0.00 | 0.00 | 0.00 | 40 | 1014.9 |
| 20260505193005 | 79 | 116 | 1.7 | 7.0 | 0.00 | 0.00 | 0.00 | 40 | 1014.9 |
| 20260505192506 | 79 | 138 | 1.7 | 6.1 | 0.00 | 0.00 | 0.00 | 38 | 1014.9 |
| 20260505190505 | 79 | 214 | 1.7 | 6.1 | 0.00 | 0.00 | 0.00 | 40 | 1014.9 |
| 20260505190006 | 79 | 251 | 2.6 | 6.1 | 0.00 | 0.00 | 0.00 | 41 | 1014.9 |
| 20260505185005 | 79 | 93 | 1.7 | 4.3 | 0.00 | 0.00 | 0.00 | 39 | 1014.9 |
| 20260505184505 | 78 | 310 | 1.7 | 6.1 | 0.00 | 0.00 | 0.00 | 39 | 1014.9 |
| 20260505183505 | 78 | 83 | 0.9 | 2.6 | 0.00 | 0.00 | 0.00 | 42 | 1014.9 |
| 20260505183006 | 77 | 121 | 1.7 | 4.3 | 0.00 | 0.00 | 0.00 | 41 | 1014.9 |
| 20260505182504 | 78 | 81 | 1.7 | 4.3 | 0.00 | 0.00 | 0.00 | 40 | 1014.9 |
| 20260505182006 | 78 | 241 | 0.9 | 7.0 | 0.00 | 0.00 | 0.00 | 40 | 1014.9 |
| 20260505181006 | 78 | 358 | 0.9 | 6.1 | 0.00 | 0.00 | 0.00 | 43 | 1014.9 |
| 20260505180505 | 78 | 210 | 0.9 | 6.1 | 0.00 | 0.00 | 0.00 | 40 | 1014.9 |
| 20260505180006 | 77 | 123 | 1.7 | 7.0 | 0.00 | 0.00 | 0.00 | 41 | 1014.9 |
| 20260505175505 | 78 | 294 | 1.7 | 5.2 | 0.00 | 0.00 | 0.00 | 40 | 1014.9 |
| 20260505175005 | 78 | 66 | 1.7 | 2.6 | 0.00 | 0.00 | 0.00 | 41 | 1014.9 |
| 20260505174505 | 78 | 349 | 0.9 | 2.6 | 0.00 | 0.00 | 0.00 | 41 | 1014.9 |
| 20260505174006 | 77 | 174 | 1.7 | 2.6 | 0.00 | 0.00 | 0.00 | 41 | 1014.9 |
| 20260505173505 | 78 | 234 | 1.7 | 6.1 | 0.00 | 0.00 | 0.00 | 41 | 1014.9 |
| 20260505173005 | 78 | 184 | 2.6 | 7.0 | 0.00 | 0.00 | 0.00 | 40 | 1014.9 |
| 20260505172506 | 78 | 284 | 1.7 | 6.1 | 0.00 | 0.00 | 0.00 | 43 | 1014.9 |
| 20260505172006 | 78 | 319 | 1.7 | 4.3 | 0.00 | 0.00 | 0.00 | 42 | 1014.9 |
| 20260505171006 | 77 | 99 | 1.7 | 6.1 | 0.00 | 0.00 | 0.00 | 43 | 1014.9 |
| 20260505170506 | 77 | 263 | 1.7 | 4.3 | 0.00 | 0.00 | 0.00 | 45 | 1014.9 |
| 20260505170005 | 77 | 72 | 2.6 | 5.2 | 0.00 | 0.00 | 0.00 | 44 | 1015.0 |
| 20260505165505 | 76 | 80 | 1.7 | 6.1 | 0.00 | 0.00 | 0.00 | 44 | 1015.0 |
| 20260505165005 | 76 | 291 | 2.6 | 6.1 | 0.00 | 0.00 | 0.00 | 44 | 1015.0 |
| 20260505164506 | 76 | 67 | 2.6 | 7.0 | 0.00 | 0.00 | 0.00 | 42 | 1015.0 |
| 20260505164006 | 76 | 136 | 2.6 | 7.0 | 0.00 | 0.00 | 0.00 | 43 | 1015.0 |
| 20260505163505 | 76 | 101 | 2.6 | 7.0 | 0.00 | 0.00 | 0.00 | 44 | 1015.0 |
| 20260505163007 | 76 | 47 | 2.6 | 5.2 | 0.00 | 0.00 | 0.00 | 45 | 1015.0 |
| 20260505162006 | 75 | 24 | 1.7 | 6.1 | 0.00 | 0.00 | 0.00 | 44 | 1015.0 |
| 20260505161505 | 75 | 23 | 1.7 | 7.0 | 0.00 | 0.00 | 0.00 | 44 | 1015.0 |
| 20260505161005 | 76 | 171 | 4.3 | 10.4 | 0.00 | 0.00 | 0.00 | 44 | 1015.0 |
| 20260505153006 | 75 | 108 | 1.7 | 5.2 | 0.00 | 0.00 | 0.00 | 46 | 1015.0 |
| 20260505152505 | 75 | 26 | 1.7 | 6.1 | 0.00 | 0.00 | 0.00 | 46 | 1015.0 |
| 20260505152005 | 76 | 222 | 1.7 | 6.1 | 0.00 | 0.00 | 0.00 | 45 | 1015.0 |
| 20260505151506 | 76 | 340 | 0.0 | 6.1 | 0.00 | 0.00 | 0.00 | 47 | 1015.0 |
| 20260505150505 | 75 | 80 | 0.0 | 0.9 | 0.00 | 0.00 | 0.00 | 50 | 1015.0 |
| 20260505140505 | 68 | 193 | 0.0 | 0.0 | 0.00 | 0.00 | 0.00 | 67 | 1014.8 |
| 20260505125005 | 56 | 229 | 0.0 | 0.0 | 0.00 | 0.00 | 0.00 | 86 | 1013.6 |
| 20260505124504 | 55 | 229 | 0.0 | 0.0 | 0.00 | 0.00 | 0.00 | 87 | 1013.6 |
| 20260505123005 | 53 | 229 | 0.0 | 0.0 | 0.00 | 0.00 | 0.00 | 91 | 1013.6 |
| 20260505122505 | 52 | 229 | 0.0 | 0.0 | 0.00 | 0.00 | 0.00 | 91 | 1013.6 |
| 20260505122005 | 52 | 229 | 0.0 | 0.0 | 0.00 | 0.00 | 0.00 | 91 | 1013.6 |
| 20260505121505 | 51 | 229 | 0.0 | 0.0 | 0.00 | 0.00 | 0.00 | 92 | 1013.6 |
| 20260505121005 | 51 | 229 | 0.0 | 0.0 | 0.00 | 0.00 | 0.00 | 92 | 1013.6 |
| 20260505120505 | 51 | 229 | 0.0 | 0.0 | 0.00 | 0.00 | 0.00 | 92 | 1013.6 |
| 20260505120006 | 50 | 229 | 0.0 | 0.0 | 0.00 | 0.00 | 0.00 | 92 | 1013.6 |
| 20260505114505 | 48 | 229 | 0.0 | 0.0 | 0.00 | 0.00 | 0.00 | 93 | 1013.6 |
| 20260505114005 | 48 | 229 | 0.0 | 0.0 | 0.00 | 0.00 | 0.00 | 93 | 1013.6 |
| 20260505113505 | 48 | 229 | 0.0 | 0.0 | 0.00 | 0.00 | 0.00 | 93 | 1013.6 |
| 20260505113006 | 47 | 229 | 0.0 | 0.0 | 0.00 | 0.00 | 0.00 | 93 | 1013.6 |
| 20260505112505 | 47 | 229 | 0.0 | 0.0 | 0.00 | 0.00 | 0.00 | 93 | 1013.6 |
| 20260505112005 | 47 | 229 | 0.0 | 0.0 | 0.00 | 0.00 | 0.00 | 93 | 1013.6 |
| 20260505111505 | 47 | 229 | 0.0 | 0.0 | 0.00 | 0.00 | 0.00 | 93 | 1013.6 |
| 20260505111006 | 46 | 229 | 0.0 | 0.0 | 0.00 | 0.00 | 0.00 | 93 | 1013.6 |
| 20260505110505 | 46 | 229 | 0.0 | 0.0 | 0.00 | 0.00 | 0.00 | 93 | 1013.6 |
| 20260505101505 | 46 | 229 | 0.0 | 0.0 | 0.00 | 0.00 | 0.00 | 92 | 1013.7 |
| 20260505101006 | 46 | 229 | 0.0 | 0.0 | 0.00 | 0.00 | 0.00 | 92 | 1013.7 |
| 20260505100505 | 46 | 229 | 0.0 | 0.0 | 0.00 | 0.00 | 0.00 | 92 | 1013.7 |
| 20260505100005 | 46 | 229 | 0.0 | 0.0 | 0.00 | 0.00 | 0.00 | 92 | 1013.7 |
| 20260505095505 | 47 | 229 | 0.0 | 0.0 | 0.00 | 0.00 | 0.00 | 92 | 1013.7 |
| 20260505095005 | 47 | 229 | 0.0 | 0.0 | 0.00 | 0.00 | 0.00 | 92 | 1013.7 |
| 20260505094507 | 47 | 229 | 0.0 | 0.0 | 0.00 | 0.00 | 0.00 | 92 | 1013.7 |
| 20260505094005 | 47 | 229 | 0.0 | 0.0 | 0.00 | 0.00 | 0.00 | 92 | 1013.7 |
| 20260505093505 | 47 | 229 | 0.0 | 0.0 | 0.00 | 0.00 | 0.00 | 92 | 1013.7 |
| 20260505093005 | 47 | 229 | 0.0 | 0.0 | 0.00 | 0.00 | 0.00 | 92 | 1013.7 |
| 20260505092005 | 47 | 229 | 0.0 | 0.0 | 0.00 | 0.00 | 0.00 | 92 | 1013.7 |
| 20260505091505 | 47 | 229 | 0.0 | 0.0 | 0.00 | 0.00 | 0.00 | 92 | 1013.7 |
| 20260505091005 | 47 | 229 | 0.0 | 0.0 | 0.00 | 0.00 | 0.00 | 92 | 1013.7 |
| 20260505090505 | 47 | 229 | 0.0 | 0.0 | 0.00 | 0.00 | 0.00 | 92 | 1013.7 |
| 20260505090005 | 47 | 229 | 0.0 | 0.0 | 0.00 | 0.00 | 0.00 | 92 | 1013.7 |
| 20260505085504 | 47 | 229 | 0.0 | 0.0 | 0.00 | 0.00 | 0.00 | 92 | 1013.7 |
| 20260505085005 | 47 | 229 | 0.0 | 0.0 | 0.00 | 0.00 | 0.00 | 92 | 1013.7 |
| 20260505084505 | 48 | 229 | 0.0 | 0.0 | 0.00 | 0.00 | 0.00 | 92 | 1013.7 |
| 20260505083006 | 48 | 229 | 0.0 | 0.0 | 0.00 | 0.00 | 0.00 | 92 | 1013.7 |
| 20260505082005 | 48 | 229 | 0.0 | 0.0 | 0.00 | 0.00 | 0.00 | 92 | 1013.7 |
| 20260505081506 | 48 | 229 | 0.0 | 0.0 | 0.00 | 0.00 | 0.00 | 91 | 1013.7 |